Year,Month,Day,Hour,Minute,Value (Times are PST for temperature in C)
2019,05,29,00,00,11.50
2019,05,29,00,01,11.50
2019,05,29,00,02,11.50
2019,05,29,00,03,11.50
2019,05,29,00,04,11.50
2019,05,29,00,05,11.40
2019,05,29,00,06,11.40
2019,05,29,00,07,11.40
2019,05,29,00,08,11.40
2019,05,29,00,09,11.40
2019,05,29,00,10,11.40
2019,05,29,00,11,11.30
2019,05,29,00,12,11.30
2019,05,29,00,13,11.30
2019,05,29,00,14,11.30
2019,05,29,00,15,11.30
2019,05,29,00,16,11.30
2019,05,29,00,17,11.30
2019,05,29,00,18,11.30
2019,05,29,00,19,11.30
2019,05,29,00,20,11.30
2019,05,29,00,21,11.30
2019,05,29,00,22,11.30
2019,05,29,00,23,11.30
2019,05,29,00,24,11.30
2019,05,29,00,25,11.20
2019,05,29,00,26,11.20
2019,05,29,00,27,11.20
2019,05,29,00,28,11.20
2019,05,29,00,29,11.20
2019,05,29,00,30,11.20
2019,05,29,00,31,11.20
2019,05,29,00,32,11.20
2019,05,29,00,33,11.20
2019,05,29,00,34,11.20
2019,05,29,00,35,11.20
2019,05,29,00,36,11.20
2019,05,29,00,37,11.20
2019,05,29,00,38,11.20
2019,05,29,00,39,11.20
2019,05,29,00,40,11.20
2019,05,29,00,41,11.20
2019,05,29,00,42,11.20
2019,05,29,00,43,11.20
2019,05,29,00,44,11.20
2019,05,29,00,45,11.20
2019,05,29,00,46,11.20
2019,05,29,00,47,11.20
2019,05,29,00,48,11.20
2019,05,29,00,49,11.10
2019,05,29,00,50,11.10
2019,05,29,00,51,11.10
2019,05,29,00,52,11.10
2019,05,29,00,53,11.10
2019,05,29,00,54,11.10
2019,05,29,00,55,11.10
2019,05,29,00,56,11.10
2019,05,29,00,57,11.10
2019,05,29,00,58,11.00
2019,05,29,00,59,11.00
2019,05,29,01,00,11.00
2019,05,29,01,01,10.90
2019,05,29,01,02,10.90
2019,05,29,01,03,10.90
2019,05,29,01,04,10.90
2019,05,29,01,05,10.90
2019,05,29,01,06,10.90
2019,05,29,01,07,10.90
2019,05,29,01,08,10.90
2019,05,29,01,09,10.90
2019,05,29,01,10,11.00
2019,05,29,01,11,10.90
2019,05,29,01,12,10.90
2019,05,29,01,13,10.90
2019,05,29,01,14,10.90
2019,05,29,01,15,11.00
2019,05,29,01,16,10.90
2019,05,29,01,17,11.00
2019,05,29,01,18,10.90
2019,05,29,01,19,10.90
2019,05,29,01,20,10.90
2019,05,29,01,21,10.90
2019,05,29,01,22,10.90
2019,05,29,01,23,10.90
2019,05,29,01,24,10.90
2019,05,29,01,25,10.90
2019,05,29,01,26,10.90
2019,05,29,01,27,10.90
2019,05,29,01,28,10.90
2019,05,29,01,29,10.90
2019,05,29,01,30,10.90
2019,05,29,01,31,10.90
2019,05,29,01,32,10.90
2019,05,29,01,33,10.90
2019,05,29,01,34,10.90
2019,05,29,01,35,10.90
2019,05,29,01,36,10.90
2019,05,29,01,37,10.90
2019,05,29,01,38,10.90
2019,05,29,01,39,10.90
2019,05,29,01,40,10.90
2019,05,29,01,41,10.90
2019,05,29,01,42,10.90
2019,05,29,01,43,10.80
2019,05,29,01,44,10.80
2019,05,29,01,45,10.80
2019,05,29,01,46,10.80
2019,05,29,01,47,10.80
2019,05,29,01,48,10.80
2019,05,29,01,49,10.80
2019,05,29,01,50,10.80
2019,05,29,01,51,10.80
2019,05,29,01,52,10.80
2019,05,29,01,53,10.80
2019,05,29,01,54,10.70
2019,05,29,01,55,10.70
2019,05,29,01,56,10.70
2019,05,29,01,57,10.70
2019,05,29,01,58,10.70
2019,05,29,01,59,10.70
2019,05,29,02,00,10.70
2019,05,29,02,01,10.70
2019,05,29,09,05,14.80
2019,05,29,09,06,14.80
2019,05,29,09,07,14.80
2019,05,29,09,08,14.80
2019,05,29,09,09,14.80
2019,05,29,09,10,14.80
2019,05,29,09,11,14.80
2019,05,29,09,12,14.80
2019,05,29,09,13,14.90
2019,05,29,09,14,14.90
2019,05,29,09,15,14.80
2019,05,29,09,16,14.80
2019,05,29,09,17,14.80
2019,05,29,09,18,14.80
2019,05,29,09,19,14.80
2019,05,29,09,20,14.80
2019,05,29,09,21,14.80
2019,05,29,09,22,14.80
2019,05,29,09,23,14.80
2019,05,29,09,24,14.80
2019,05,29,09,25,14.90
2019,05,29,09,26,14.90
2019,05,29,09,27,14.90
2019,05,29,09,28,14.90
2019,05,29,09,29,14.90
2019,05,29,09,30,14.90
2019,05,29,09,31,15.00
2019,05,29,09,32,14.90
2019,05,29,09,33,14.90
2019,05,29,09,34,14.90
2019,05,29,09,35,14.80
2019,05,29,09,36,14.70
2019,05,29,09,37,14.70
2019,05,29,09,38,14.60
2019,05,29,09,39,14.60
2019,05,29,09,40,14.60
2019,05,29,09,41,14.60
2019,05,29,09,42,14.60
2019,05,29,09,43,14.60
2019,05,29,09,44,14.70
2019,05,29,09,45,14.70
2019,05,29,09,46,14.80
2019,05,29,09,47,14.90
2019,05,29,09,48,14.90
2019,05,29,09,49,14.90
2019,05,29,09,50,14.90
2019,05,29,09,51,15.00
2019,05,29,09,52,15.00
2019,05,29,09,53,15.00
2019,05,29,09,54,15.10
2019,05,29,09,55,15.20
2019,05,29,09,56,15.20
2019,05,29,09,57,15.30
2019,05,29,09,58,15.30
2019,05,29,09,59,15.50
2019,05,29,10,00,15.60
2019,05,29,10,01,15.70
2019,05,29,10,02,15.70
2019,05,29,10,03,15.70
2019,05,29,10,04,15.70
2019,05,29,10,05,15.70
2019,05,29,10,06,15.70
2019,05,29,10,07,15.70
2019,05,29,10,08,15.80
2019,05,29,10,09,15.80
2019,05,29,10,10,15.80
2019,05,29,10,11,15.80
2019,05,29,10,12,15.70
2019,05,29,10,13,15.70
2019,05,29,10,14,15.70
2019,05,29,10,15,15.70
2019,05,29,10,16,15.80
2019,05,29,10,17,15.90
2019,05,29,10,18,16.00
2019,05,29,10,19,16.10
2019,05,29,10,20,16.20
2019,05,29,10,21,16.20
2019,05,29,10,22,16.30
2019,05,29,10,23,16.40
2019,05,29,10,24,16.50
2019,05,29,10,25,16.60
2019,05,29,10,26,16.60
2019,05,29,10,27,16.50
2019,05,29,10,28,16.50
2019,05,29,10,29,16.40
2019,05,29,10,30,16.40
2019,05,29,10,31,16.40
2019,05,29,10,32,16.30
2019,05,29,10,33,16.40
2019,05,29,10,34,16.40
2019,05,29,10,35,16.50
2019,05,29,10,36,16.60
2019,05,29,10,37,16.70
2019,05,29,10,38,16.70
2019,05,29,10,39,16.70
2019,05,29,10,40,16.80
2019,05,29,10,41,16.90
2019,05,29,10,42,16.90
2019,05,29,10,43,16.90
2019,05,29,10,44,17.00
2019,05,29,10,45,17.00
2019,05,29,10,46,17.00
2019,05,29,10,47,17.00
2019,05,29,10,48,17.00
2019,05,29,10,49,16.90
2019,05,29,10,50,16.90
2019,05,29,10,51,16.80
2019,05,29,10,52,16.80
2019,05,29,10,53,16.80
2019,05,29,10,54,16.80
2019,05,29,10,55,16.70
2019,05,29,10,56,16.70
2019,05,29,10,57,16.60
2019,05,29,10,58,16.50
2019,05,29,10,59,16.50
2019,05,29,11,00,16.50
2019,05,29,11,01,16.50
2019,05,29,11,02,16.60
2019,05,29,11,03,16.70
2019,05,29,11,04,16.60
2019,05,29,11,05,16.60
2019,05,29,11,06,16.70
2019,05,29,11,07,16.70
2019,05,29,11,08,16.70
2019,05,29,11,09,16.80
2019,05,29,11,10,16.80
2019,05,29,11,11,16.80
2019,05,29,11,12,16.80
2019,05,29,11,13,16.90
2019,05,29,11,14,17.00
2019,05,29,11,15,17.10
2019,05,29,11,16,17.20
2019,05,29,11,17,17.20
2019,05,29,11,18,17.20
2019,05,29,11,19,17.30
2019,05,29,11,20,17.30
2019,05,29,11,21,17.40
2019,05,29,11,22,17.50
2019,05,29,11,23,17.50
2019,05,29,11,24,17.60
2019,05,29,11,25,17.60
2019,05,29,11,26,17.70
2019,05,29,11,27,17.70
2019,05,29,11,28,17.70
2019,05,29,11,29,17.70
2019,05,29,11,30,17.70
2019,05,29,11,31,17.80
2019,05,29,11,32,17.70
2019,05,29,11,33,17.60
2019,05,29,11,34,17.60
2019,05,29,11,35,17.50
2019,05,29,11,36,17.40
2019,05,29,11,37,17.40
2019,05,29,11,38,17.40
2019,05,29,11,39,17.40
2019,05,29,11,40,17.40
2019,05,29,11,41,17.40
2019,05,29,11,42,17.50
2019,05,29,11,43,17.50
2019,05,29,11,44,17.60
2019,05,29,11,45,17.60
2019,05,29,11,46,17.80
2019,05,29,11,47,17.80
2019,05,29,11,48,17.90
2019,05,29,11,49,18.00
2019,05,29,11,50,18.10
2019,05,29,11,51,18.00
2019,05,29,11,52,17.80
2019,05,29,11,53,17.70
2019,05,29,11,54,17.70
2019,05,29,11,55,17.60
2019,05,29,11,56,17.60
2019,05,29,11,57,17.70
2019,05,29,11,58,17.70
2019,05,29,11,59,17.60
2019,05,29,12,00,17.60
2019,05,29,12,01,17.60
2019,05,29,12,02,17.60
2019,05,29,12,03,17.50
2019,05,29,12,04,17.50
2019,05,29,12,05,17.40
2019,05,29,12,06,17.50
2019,05,29,12,07,17.60
2019,05,29,12,08,17.70
2019,05,29,12,09,17.80
2019,05,29,12,10,17.80
2019,05,29,12,11,17.80
2019,05,29,12,12,17.80
2019,05,29,12,13,17.80
2019,05,29,12,14,17.70
2019,05,29,12,15,17.70
2019,05,29,12,16,17.80
2019,05,29,12,17,17.80
2019,05,29,12,18,17.70
2019,05,29,12,19,17.60
2019,05,29,12,20,17.50
2019,05,29,12,21,17.50
2019,05,29,12,22,17.30
2019,05,29,12,23,17.30
2019,05,29,12,24,17.40
2019,05,29,12,25,17.40
2019,05,29,12,26,17.40
2019,05,29,12,27,17.50
2019,05,29,12,28,17.60
2019,05,29,12,29,17.70
2019,05,29,12,30,17.80
2019,05,29,12,31,17.80
2019,05,29,12,32,17.70
2019,05,29,12,33,17.60
2019,05,29,12,34,17.50
2019,05,29,12,35,17.50
2019,05,29,12,36,17.60
2019,05,29,12,37,17.60
2019,05,29,12,38,17.60
2019,05,29,12,39,17.70
2019,05,29,12,40,17.70
2019,05,29,12,41,17.70
2019,05,29,12,42,17.80
2019,05,29,12,43,17.80
2019,05,29,12,44,17.90
2019,05,29,12,45,18.00
2019,05,29,12,46,18.00
2019,05,29,12,47,18.10
2019,05,29,12,48,18.10
2019,05,29,12,49,18.10
2019,05,29,12,50,18.20
2019,05,29,12,51,18.20
2019,05,29,12,52,18.20
2019,05,29,12,53,18.10
2019,05,29,12,54,18.10
2019,05,29,12,55,18.10
2019,05,29,12,56,18.10
2019,05,29,12,57,18.10
2019,05,29,12,58,18.10
2019,05,29,12,59,18.10
2019,05,29,13,00,18.10
2019,05,29,13,01,18.10
2019,05,29,13,02,18.00
2019,05,29,13,03,17.90
2019,05,29,13,04,17.90
2019,05,29,13,05,18.00
2019,05,29,13,06,18.10
2019,05,29,13,07,18.20
2019,05,29,13,08,18.30
2019,05,29,13,09,18.30
2019,05,29,13,10,18.30
2019,05,29,13,11,18.20
2019,05,29,13,12,18.20
2019,05,29,13,13,18.20
2019,05,29,13,14,18.20
2019,05,29,13,15,18.10
2019,05,29,13,16,18.10
2019,05,29,13,17,18.10
2019,05,29,13,18,18.20
2019,05,29,13,19,18.30
2019,05,29,13,20,18.40
2019,05,29,13,21,18.30
2019,05,29,13,22,18.20
2019,05,29,13,23,18.20
2019,05,29,13,24,18.20
2019,05,29,13,25,18.20
2019,05,29,13,26,18.20
2019,05,29,13,27,18.20
2019,05,29,13,28,18.20
2019,05,29,13,29,18.20
2019,05,29,13,30,18.20
2019,05,29,13,31,18.30
2019,05,29,13,32,18.30
2019,05,29,13,33,18.30
2019,05,29,13,34,18.30
2019,05,29,13,35,18.20
2019,05,29,13,36,18.20
2019,05,29,13,37,18.20
2019,05,29,13,38,18.20
2019,05,29,13,39,18.30
2019,05,29,13,40,18.20
2019,05,29,13,41,18.20
2019,05,29,13,42,18.10
2019,05,29,13,43,18.00
2019,05,29,13,44,17.90
2019,05,29,13,45,17.80
2019,05,29,13,46,17.90
2019,05,29,13,47,17.90
2019,05,29,13,48,18.00
2019,05,29,13,49,18.10
2019,05,29,13,50,18.20
2019,05,29,13,51,18.10
2019,05,29,13,52,18.00
2019,05,29,13,53,17.90
2019,05,29,13,54,17.90
2019,05,29,13,55,18.00
2019,05,29,13,56,18.10
2019,05,29,13,57,18.20
2019,05,29,13,58,18.20
2019,05,29,13,59,18.20
2019,05,29,14,00,18.20
2019,05,29,14,01,18.20
2019,05,29,14,02,18.10
2019,05,29,14,03,18.10
2019,05,29,14,04,18.10
2019,05,29,14,05,18.10
2019,05,29,14,06,18.10
2019,05,29,14,07,18.10
2019,05,29,14,08,18.10
2019,05,29,14,09,18.10
2019,05,29,14,10,18.10
2019,05,29,14,11,18.20
2019,05,29,14,12,18.30
2019,05,29,14,13,18.40
2019,05,29,14,14,18.40
2019,05,29,14,15,18.40
2019,05,29,14,16,18.20
2019,05,29,14,17,18.10
2019,05,29,14,18,18.10
2019,05,29,14,19,18.20
2019,05,29,14,20,18.20
2019,05,29,14,21,18.20
2019,05,29,14,22,18.30
2019,05,29,14,23,18.30
2019,05,29,14,24,18.50
2019,05,29,14,25,18.70
2019,05,29,14,26,18.80
2019,05,29,14,27,18.90
2019,05,29,14,28,18.90
2019,05,29,14,29,18.90
2019,05,29,14,30,18.90
2019,05,29,14,31,18.90
2019,05,29,14,32,18.80
2019,05,29,14,33,18.70
2019,05,29,14,34,18.60
2019,05,29,14,35,18.60
2019,05,29,14,36,18.60
2019,05,29,14,37,18.60
2019,05,29,14,38,18.60
2019,05,29,14,39,18.70
2019,05,29,14,40,18.80
2019,05,29,14,41,18.80
2019,05,29,14,42,18.80
2019,05,29,14,43,18.80
2019,05,29,14,44,18.90
2019,05,29,14,45,18.90
2019,05,29,14,46,19.00
2019,05,29,14,47,19.10
2019,05,29,14,48,19.20
2019,05,29,14,49,19.30
2019,05,29,14,50,19.20
2019,05,29,14,51,19.20
2019,05,29,14,52,19.10
2019,05,29,14,53,19.10
2019,05,29,14,54,19.20
2019,05,29,14,55,19.20
2019,05,29,14,56,19.20
2019,05,29,14,57,19.30
2019,05,29,14,58,19.30
2019,05,29,14,59,19.30
2019,05,29,15,00,19.20
2019,05,29,15,01,19.20
2019,05,29,15,02,19.20
2019,05,29,15,03,19.30
2019,05,29,15,04,19.30
2019,05,29,15,05,19.40
2019,05,29,15,06,19.30
2019,05,29,15,07,19.30
2019,05,29,15,08,19.40
2019,05,29,15,09,19.50
2019,05,29,15,10,19.60
2019,05,29,15,11,19.60
2019,05,29,15,12,19.60
2019,05,29,15,13,19.60
2019,05,29,15,14,19.70
2019,05,29,15,15,19.60
2019,05,29,15,16,19.50
2019,05,29,15,17,19.60
2019,05,29,15,18,19.70
2019,05,29,15,19,19.80
2019,05,29,15,20,19.80
2019,05,29,15,21,19.80
2019,05,29,15,22,19.80
2019,05,29,15,23,19.80
2019,05,29,15,24,19.80
2019,05,29,15,25,19.80
2019,05,29,15,26,19.90
2019,05,29,15,27,20.00
2019,05,29,15,28,20.00
2019,05,29,15,29,20.00
2019,05,29,15,30,19.90
2019,05,29,15,31,19.90
2019,05,29,15,32,19.90
2019,05,29,15,33,20.00
2019,05,29,15,34,20.00
2019,05,29,15,35,20.00
2019,05,29,15,36,20.00
2019,05,29,15,37,20.10
2019,05,29,15,38,20.10
2019,05,29,15,39,20.10
2019,05,29,15,40,20.10
2019,05,29,15,41,20.00
2019,05,29,15,42,20.00
2019,05,29,15,43,20.10
2019,05,29,15,44,20.20
2019,05,29,15,45,20.30
2019,05,29,15,46,20.30
2019,05,29,15,47,20.20
2019,05,29,15,48,20.20
2019,05,29,15,49,20.20
2019,05,29,15,50,20.10
2019,05,29,15,51,20.00
2019,05,29,15,52,19.90
2019,05,29,15,53,19.90
2019,05,29,15,54,19.90
2019,05,29,15,55,20.00
2019,05,29,15,56,20.00
2019,05,29,15,57,20.20
2019,05,29,15,58,20.30
2019,05,29,15,59,20.40
2019,05,29,16,00,20.40
2019,05,29,16,01,20.40
2019,05,29,16,02,20.40
2019,05,29,16,03,20.40
2019,05,29,16,04,20.30
2019,05,29,16,05,20.30
2019,05,29,16,06,20.30
2019,05,29,16,07,20.20
2019,05,29,16,08,20.10
2019,05,29,16,09,20.10
2019,05,29,16,10,20.10
2019,05,29,16,11,20.10
2019,05,29,16,12,20.00
2019,05,29,16,13,20.00
2019,05,29,16,14,20.00
2019,05,29,16,15,20.10
2019,05,29,16,16,20.10
2019,05,29,16,17,20.10
2019,05,29,16,18,20.10
2019,05,29,16,19,20.20
2019,05,29,16,20,20.20
2019,05,29,16,21,20.20
2019,05,29,16,22,20.20
2019,05,29,16,23,20.20
2019,05,29,16,24,20.20
2019,05,29,16,25,20.20
2019,05,29,16,26,20.30
2019,05,29,16,27,20.30
2019,05,29,16,28,20.30
2019,05,29,16,29,20.30
2019,05,29,16,30,20.30
2019,05,29,16,31,20.30
2019,05,29,16,32,20.30
2019,05,29,16,33,20.30
2019,05,29,16,34,20.30
2019,05,29,16,35,20.20
2019,05,29,16,36,20.10
2019,05,29,16,37,20.00
2019,05,29,16,38,19.90
2019,05,29,16,39,19.90
2019,05,29,16,40,19.90
2019,05,29,16,41,20.00
2019,05,29,16,42,20.00
2019,05,29,16,43,20.00
2019,05,29,16,44,20.10
2019,05,29,16,45,20.20
2019,05,29,16,46,20.20
2019,05,29,16,47,20.20
2019,05,29,16,48,20.10
2019,05,29,16,49,20.10
2019,05,29,16,50,20.00
2019,05,29,16,51,20.00
2019,05,29,16,52,20.00
2019,05,29,16,53,19.90
2019,05,29,16,54,19.90
2019,05,29,16,55,19.80
2019,05,29,16,56,19.70
2019,05,29,16,57,19.60
2019,05,29,16,58,19.50
2019,05,29,16,59,19.50
2019,05,29,17,00,19.40
2019,05,29,17,01,19.30
2019,05,29,17,02,19.40
2019,05,29,17,03,19.40
2019,05,29,17,04,19.40
2019,05,29,17,05,19.40
2019,05,29,17,06,19.30
2019,05,29,17,07,19.30
2019,05,29,17,08,19.30
2019,05,29,17,09,19.30
2019,05,29,17,10,19.30
2019,05,29,17,11,19.20
2019,05,29,17,12,19.10
2019,05,29,17,13,19.00
2019,05,29,17,14,18.90
2019,05,29,17,15,18.90
2019,05,29,17,16,18.90
2019,05,29,17,17,18.90
2019,05,29,17,18,18.80
2019,05,29,17,19,18.80
2019,05,29,17,20,18.80
2019,05,29,17,21,18.90
2019,05,29,17,22,18.90
2019,05,29,17,23,18.80
2019,05,29,17,24,18.80
2019,05,29,17,25,18.70
2019,05,29,17,26,18.60
2019,05,29,17,27,18.50
2019,05,29,17,28,18.40
2019,05,29,17,29,18.30
2019,05,29,17,30,18.30
2019,05,29,17,31,18.30
2019,05,29,17,32,18.20
2019,05,29,17,33,18.20
2019,05,29,17,34,18.20
2019,05,29,17,35,18.20
2019,05,29,17,36,18.20
2019,05,29,17,37,18.20
2019,05,29,17,38,18.20
2019,05,29,17,39,18.20
2019,05,29,17,40,18.10
2019,05,29,17,41,18.10
2019,05,29,17,42,18.00
2019,05,29,17,43,18.00
2019,05,29,17,44,18.00
2019,05,29,17,45,18.10
2019,05,29,17,46,18.10
2019,05,29,17,47,18.20
2019,05,29,17,48,18.20
2019,05,29,17,49,18.30
2019,05,29,17,50,18.30
2019,05,29,17,51,18.30
2019,05,29,17,52,18.30
2019,05,29,17,53,18.30
2019,05,29,17,54,18.30
2019,05,29,17,55,18.30
2019,05,29,17,56,18.40
2019,05,29,17,57,18.50
2019,05,29,17,58,18.50
2019,05,29,17,59,18.60
2019,05,29,18,00,18.60
2019,05,29,18,01,18.60
2019,05,29,18,02,18.50
2019,05,29,18,03,18.40
2019,05,29,18,04,18.30
2019,05,29,18,05,18.30
2019,05,29,18,06,18.40
2019,05,29,18,07,18.40
2019,05,29,18,08,18.50
2019,05,29,18,09,18.50
2019,05,29,18,10,18.50
2019,05,29,18,11,18.50
2019,05,29,18,12,18.50
2019,05,29,18,13,18.60
2019,05,29,18,14,18.60
2019,05,29,18,15,18.60
2019,05,29,18,16,18.70
2019,05,29,18,17,18.70
2019,05,29,18,18,18.60
2019,05,29,18,19,18.60
2019,05,29,18,20,18.60
2019,05,29,18,21,18.60
2019,05,29,18,22,18.60
2019,05,29,18,23,18.60
2019,05,29,18,24,18.60
2019,05,29,18,25,18.60
2019,05,29,18,26,18.60
2019,05,29,18,27,18.60
2019,05,29,18,28,18.50
2019,05,29,18,29,18.40
2019,05,29,18,30,18.40
2019,05,29,18,31,18.30
2019,05,29,18,32,18.30
2019,05,29,18,33,18.20
2019,05,29,18,34,18.20
2019,05,29,18,35,18.20
2019,05,29,18,36,18.10
2019,05,29,18,37,18.10
2019,05,29,18,38,18.10
2019,05,29,18,39,18.10
2019,05,29,18,40,18.10
2019,05,29,18,41,18.10
2019,05,29,18,42,18.10
2019,05,29,18,43,18.10
2019,05,29,18,44,18.10
2019,05,29,18,45,18.10
2019,05,29,18,46,18.10
2019,05,29,18,47,18.10
2019,05,29,18,48,18.10
2019,05,29,18,49,18.10
2019,05,29,18,50,18.10
2019,05,29,18,51,18.10
2019,05,29,18,52,18.10
2019,05,29,18,53,18.10
2019,05,29,18,54,18.10
2019,05,29,18,55,18.10
2019,05,29,18,56,18.00
2019,05,29,18,57,18.00
2019,05,29,18,58,18.00
2019,05,29,18,59,17.90
2019,05,29,19,00,17.90
2019,05,29,19,01,17.90
2019,05,29,19,02,17.90
2019,05,29,19,03,17.90
2019,05,29,19,04,17.90
2019,05,29,19,05,17.90
2019,05,29,19,06,17.80
2019,05,29,19,07,17.80
2019,05,29,19,08,17.80
2019,05,29,19,09,17.90
2019,05,29,19,10,17.90
2019,05,29,19,11,17.90
2019,05,29,19,12,17.90
2019,05,29,19,13,17.90
2019,05,29,19,14,17.90
2019,05,29,19,15,17.90
2019,05,29,19,16,17.90
2019,05,29,19,17,17.90
2019,05,29,19,18,17.80
2019,05,29,19,19,17.80
2019,05,29,19,20,17.70
2019,05,29,19,21,17.70
2019,05,29,19,22,17.70
2019,05,29,19,23,17.70
2019,05,29,19,24,17.60
2019,05,29,19,25,17.60
2019,05,29,19,26,17.60
2019,05,29,19,27,17.60
2019,05,29,19,28,17.60
2019,05,29,19,29,17.60
2019,05,29,19,30,17.50
2019,05,29,19,31,17.50
2019,05,29,19,32,17.50
2019,05,29,19,33,17.40
2019,05,29,19,34,17.40
2019,05,29,19,35,17.40
2019,05,29,19,36,17.40
2019,05,29,19,37,17.40
2019,05,29,19,38,17.40
2019,05,29,19,39,17.40
2019,05,29,19,40,17.40
2019,05,29,19,41,17.40
2019,05,29,19,42,17.40
2019,05,29,19,43,17.40
2019,05,29,19,44,17.40
2019,05,29,19,45,17.40
2019,05,29,19,46,17.40
2019,05,29,19,47,17.40
2019,05,29,19,48,17.40
2019,05,29,19,49,17.40
2019,05,29,19,50,17.30
2019,05,29,19,51,17.30
2019,05,29,19,52,17.30
2019,05,29,19,53,17.30
2019,05,29,19,54,17.30
2019,05,29,19,55,17.30
2019,05,29,19,56,17.30
2019,05,29,19,57,17.30
2019,05,29,19,58,17.20
2019,05,29,19,59,17.20
2019,05,29,20,00,17.20
2019,05,29,20,01,17.20
2019,05,29,20,02,17.20
2019,05,29,20,03,17.20
2019,05,29,20,04,17.10
2019,05,29,20,05,17.10
2019,05,29,20,06,17.10
2019,05,29,20,07,17.00
2019,05,29,20,08,17.00
2019,05,29,20,09,16.90
2019,05,29,20,10,16.90
2019,05,29,20,11,16.90
2019,05,29,20,12,16.80
2019,05,29,20,13,16.80
2019,05,29,20,14,16.80
2019,05,29,20,15,16.80
2019,05,29,20,16,16.70
2019,05,29,20,17,16.70
2019,05,29,20,18,16.70
2019,05,29,20,19,16.60
2019,05,29,20,20,16.60
2019,05,29,20,21,16.60
2019,05,29,20,22,16.50
2019,05,29,20,23,16.50
2019,05,29,20,24,16.40
2019,05,29,20,25,16.40
2019,05,29,20,26,16.40
2019,05,29,20,27,16.30
2019,05,29,20,28,16.30
2019,05,29,20,29,16.30
2019,05,29,20,30,16.30
2019,05,29,20,31,16.30
2019,05,29,20,32,16.20
2019,05,29,20,33,16.20
2019,05,29,20,34,16.20
2019,05,29,20,35,16.20
2019,05,29,20,36,16.20
2019,05,29,20,37,16.20
2019,05,29,20,38,16.10
2019,05,29,20,39,16.10
2019,05,29,20,40,16.10
2019,05,29,20,41,16.10
2019,05,29,20,42,16.00
2019,05,29,20,43,16.00
2019,05,29,20,44,15.90
2019,05,29,20,45,15.90
2019,05,29,20,46,15.90
2019,05,29,20,47,15.90
2019,05,29,20,48,15.80
2019,05,29,20,49,15.80
2019,05,29,20,50,15.80
2019,05,29,20,51,15.80
2019,05,29,20,52,15.80
2019,05,29,20,53,15.80
2019,05,29,20,54,15.80
2019,05,29,20,55,15.70
2019,05,29,20,56,15.70
2019,05,29,20,57,15.70
2019,05,29,20,58,15.70
2019,05,29,20,59,15.70
2019,05,29,21,00,15.70
2019,05,29,21,01,15.70
2019,05,29,21,02,15.70
2019,05,29,21,03,15.70
2019,05,29,21,04,15.60
2019,05,29,21,05,15.60
2019,05,29,21,06,15.60
2019,05,29,21,07,15.50
2019,05,29,21,08,15.50
2019,05,29,21,09,15.40
2019,05,29,21,10,15.30
2019,05,29,21,11,15.30
2019,05,29,21,12,15.20
2019,05,29,21,13,15.20
2019,05,29,21,14,15.10
2019,05,29,21,15,15.00
2019,05,29,21,16,15.00
2019,05,29,21,17,15.00
2019,05,29,21,18,15.00
2019,05,29,21,19,15.00
2019,05,29,21,20,14.90
2019,05,29,21,21,14.80
2019,05,29,21,22,14.80
2019,05,29,21,23,14.70
2019,05,29,21,24,14.70
2019,05,29,21,25,14.70
2019,05,29,21,26,14.70
2019,05,29,21,27,14.60
2019,05,29,21,28,14.60
2019,05,29,21,29,14.60
2019,05,29,21,30,14.50
2019,05,29,21,31,14.50
2019,05,29,21,32,14.50
2019,05,29,21,33,14.40
2019,05,29,21,34,14.40
2019,05,29,21,35,14.40
2019,05,29,21,36,14.40
2019,05,29,21,37,14.40
2019,05,29,21,38,14.40
2019,05,29,21,39,14.40
2019,05,29,21,40,14.30
2019,05,29,21,41,14.30
2019,05,29,21,42,14.30
2019,05,29,21,43,14.30
2019,05,29,21,44,14.30
2019,05,29,21,45,14.20
2019,05,29,21,46,14.20
2019,05,29,21,47,14.20
2019,05,29,21,48,14.20
2019,05,29,21,49,14.20
2019,05,29,21,50,14.20
2019,05,29,21,51,14.10
2019,05,29,21,52,14.10
2019,05,29,21,53,14.10
2019,05,29,21,54,14.00
2019,05,29,21,55,14.00
2019,05,29,21,56,14.00
2019,05,29,21,57,14.00
2019,05,29,21,58,14.00
2019,05,29,21,59,13.90
2019,05,29,22,00,13.90
2019,05,29,22,01,13.90
2019,05,29,22,02,13.90
2019,05,29,22,03,13.90
2019,05,29,22,04,13.90
2019,05,29,22,05,13.80
2019,05,29,22,06,13.80
2019,05,29,22,07,13.80
2019,05,29,22,08,13.80
2019,05,29,22,09,13.80
2019,05,29,22,10,13.80
2019,05,29,22,11,13.70
2019,05,29,22,12,13.70
2019,05,29,22,13,13.70
2019,05,29,22,14,13.70
2019,05,29,22,15,13.70
2019,05,29,22,16,13.70
2019,05,29,22,17,13.70
2019,05,29,22,18,13.60
2019,05,29,22,19,13.60
2019,05,29,22,20,13.60
2019,05,29,22,21,13.60
2019,05,29,22,22,13.50
2019,05,29,22,23,13.50
2019,05,29,22,24,13.50
2019,05,29,22,25,13.40
2019,05,29,22,26,13.40
2019,05,29,22,27,13.40
2019,05,29,22,28,13.40
2019,05,29,22,29,13.40
2019,05,29,22,30,13.40
2019,05,29,22,31,13.30
2019,05,29,22,32,13.30
2019,05,29,22,33,13.30
2019,05,29,22,34,13.30
2019,05,29,22,35,13.30
2019,05,29,22,36,13.30
2019,05,29,22,37,13.20
2019,05,29,22,38,13.20
2019,05,29,22,39,13.20
2019,05,29,22,40,13.20
2019,05,29,22,41,13.10
2019,05,29,22,42,13.10
2019,05,29,22,43,13.10
2019,05,29,22,44,13.10
2019,05,29,22,45,13.00
2019,05,29,22,46,13.00
2019,05,29,22,47,13.00
2019,05,29,22,48,12.90
2019,05,29,22,49,12.90
2019,05,29,22,50,12.90
2019,05,29,22,51,12.90
2019,05,29,22,52,12.80
2019,05,29,22,53,12.80
2019,05,29,22,54,12.80
2019,05,29,22,55,12.80
2019,05,29,22,56,12.80
2019,05,29,22,57,12.80
2019,05,29,22,58,12.80
2019,05,29,22,59,12.70
2019,05,29,23,00,12.70
2019,05,29,23,01,12.70
2019,05,29,23,02,12.70
2019,05,29,23,03,12.70
2019,05,29,23,04,12.70
2019,05,29,23,05,12.70
2019,05,29,23,06,12.60
2019,05,29,23,07,12.60
2019,05,29,23,08,12.60
2019,05,29,23,09,12.60
2019,05,29,23,10,12.60
2019,05,29,23,11,12.60
2019,05,29,23,12,12.50
2019,05,29,23,13,12.50
2019,05,29,23,14,12.50
2019,05,29,23,15,12.50
2019,05,29,23,16,12.50
2019,05,29,23,17,12.50
2019,05,29,23,18,12.50
2019,05,29,23,19,12.50
2019,05,29,23,20,12.50
2019,05,29,23,21,12.40
2019,05,29,23,22,12.40
2019,05,29,23,23,12.40
2019,05,29,23,24,12.40
2019,05,29,23,25,12.30
2019,05,29,23,26,12.30
2019,05,29,23,27,12.30
2019,05,29,23,28,12.30
2019,05,29,23,29,12.30
2019,05,29,23,30,12.30
2019,05,29,23,31,12.30
2019,05,29,23,32,12.20
2019,05,29,23,33,12.20
2019,05,29,23,34,12.20
2019,05,29,23,35,12.20
2019,05,29,23,36,12.20
2019,05,29,23,37,12.20
2019,05,29,23,38,12.20
2019,05,29,23,39,12.20
2019,05,29,23,40,12.20
2019,05,29,23,41,12.20
2019,05,29,23,42,12.20
2019,05,29,23,43,12.20
2019,05,29,23,44,12.20
2019,05,29,23,45,12.10
2019,05,29,23,46,12.10
2019,05,29,23,47,12.10
2019,05,29,23,48,12.10
2019,05,29,23,49,12.10
2019,05,29,23,50,12.10
2019,05,29,23,51,12.00
2019,05,29,23,52,12.00
2019,05,29,23,53,12.00
2019,05,29,23,54,12.00
2019,05,29,23,55,12.00
2019,05,29,23,56,11.90
2019,05,29,23,57,11.90
2019,05,29,23,58,11.90
2019,05,29,23,59,11.90
